GFSMA_con_3kmhel_231.txt.gz
Helicity
182 187 201 256 288 323 327 316 295 292 274 256 232 216 162 111 129 237 275 249 235 217 159 141 144 129 112 107 102 104 91 94 87 83 76 86 92 83 90 88 87 86 91
211 197 200 258 290 317 358 357 334 314 306 290 259 250 206 149 195 281 301 276 274 257 206 139 131 114 126 94 88 116 85 86 103 75 76 89 112 98 94 97 98 124 139
114 135 157 185 231 300 316 328 346 352 309 291 269 292 263 200 275 336 360 360 292 281 253 195 191 140 113 112 90 85 107 102 71 98 110 118 115 113 121 146 157 162 165
137 111 110 130 156 250 306 334 359 409 362 331 331 300 313 242 322 387 406 406 356 329 302 246 221 179 132 115 93 100 97 96 109 93 108 117 113 125 139 165 178 182 177
69 96 83 89 106 135 211 296 394 445 451 408 366 346 357 301 364 424 417 436 411 425 386 293 241 189 182 133 110 88 106 115 122 90 96 109 115 122 143 161 171 176 189
-18 4 42 67 81 101 149 250 302 453 521 446 415 398 362 291 372 423 454 441 456 432 426 383 319 230 175 163 137 113 98 132 120 100 97 101 107 123 142 142 150 172 183
45 45 25 62 99 97 123 163 319 426 470 489 462 513 564 487 453 478 463 538 461 449 462 419 361 325 254 191 158 130 117 125 130 122 104 123 123 141 147 155 152 152 152
77 74 69 63 54 107 130 168 305 434 476 557 564 619 583 897 527 513 475 525 478 454 479 418 401 352 302 264 205 150 120 115 137 129 118 123 131 139 158 170 164 170 150
32 34 82 78 53 46 102 118 163 409 307 456 530 596 526 506 593 673 539 478 425 465 466 436 452 373 339 381 225 171 151 124 140 156 143 138 131 126 140 161 161 166 130
5 115 87 108 79 66 49 -10 55 220 132 349 546 528 536 612 416 574 791 536 379 504 493 384 432 436 410 347 222 200 178 179 141 159 181 144 115 113 130 154 151 155 148
87 77 148 158 146 96 72 63 -90 62 61 130 105 487 644 637 568 390 528 286 550 525 459 508 481 519 413 344 325 234 191 221 233 184 165 147 125 133 141 126 138 120 124
97 110 100 150 118 103 73 90 43 19 5 26 187 171 323 477 342 609 402 343 473 606 468 539 424 513 482 411 304 286 244 256 261 200 164 126 149 140 138 122 122 91 111
50 42 85 110 94 36 139 145 103 108 88 -158 -195 88 165 169 470 410 351 432 476 648 481 729 546 556 472 378 398 320 318 292 325 307 334 308 158 156 129 144 122 96 107
89 79 106 87 38 51 29 -8 46 76 54 -19 -48 -148 -23 181 201 340 408 557 543 574 817 676 657 421 527 448 397 383 406 442 383 385 458 622 456 188 158 150 111 122 126
83 48 58 70 39 13 -25 -6 30 -18 10 2 -18 19 12 16 111 238 308 460 556 407 477 482 537 703 516 515 550 524 477 507 593 478 554 582 529 227 176 143 134 139 140
43 18 -6 17 45 43 14 118 12 72 40 41 -21 3 43 66 114 75 221 378 307 314 355 532 467 592 620 572 541 577 634 586 548 506 532 616 539 296 189 171 188 177 157
56 40 14 15 22 8 7 -2 -1 21 44 62 58 22 113 55 86 65 61 125 228 348 272 401 392 488 575 608 654 647 648 611 707 567 606 594 563 443 261 262 250 232 208
48 43 29 30 43 58 39 35 53 61 49 55 60 59 110 49 55 132 89 109 186 244 468 342 421 403 547 605 717 752 789 765 629 540 597 538 569 575 396 352 356 331 308
-23 -21 -14 -2 15 31 41 34 22 28 22 43 32 50 59 37 23 94 165 129 150 166 224 237 376 376 551 623 642 856 789 819 688 689 569 552 577 588 470 367 403 389 354
6 2 18 -11 -27 -42 27 16 -14 -15 14 42 32 37 32 37 -20 12 135 117 155 167 257 228 231 281 428 551 713 905 793 766 887 616 545 542 527 561 533 436 406 393 364
21 26 17 20 18 -55 35 -4 7 -24 -8 19 42 44 57 113 104 35 38 134 160 274 256 276 362 311 460 556 595 800 930 881 837 719 736 590 578 577 576 436 412 400 396
41 25 15 14 20 28 -8 -6 -13 8 -11 -10 16 31 44 82 66 31 72 42 63 127 226 282 350 315 274 342 590 696 937 1036 1026 706 834 624 612 642 652 524 419 442 437
13 7 13 6 2 -14 -10 -18 -23 -37 -25 -8 -10 -1 13 35 70 85 82 39 39 215 225 283 256 288 388 428 527 720 863 986 1026 1019 917 776 646 772 733 584 458 447 428
17 11 12 10 -1 12 5 -2 -12 -4 -5 -1 8 14 5 21 40 68 77 100 72 100 239 191 229 280 330 448 586 701 816 866 1005 982 913 982 780 802 738 644 505 475 455
27 26 26 23 18 29 25 20 10 13 6 15 16 36 50 64 58 74 58 61 66 97 133 196 248 245 272 452 583 767 847 956 974 1133 911 1076 1010 1045 787 700 655 517 432
27 27 23 17 14 21 22 20 28 25 31 29 20 20 43 37 55 87 34 37 37 65 151 205 249 289 296 381 627 830 992 1028 1188 1221 1111 1088 1091 1226 936 772 681 663 540

GFSMA_con_3kmhel_234.txt.gz
Helicity
117 145 170 190 200 221 220 231 232 237 227 215 189 188 161 167 178 217 228 223 253 244 221 167 159 149 137 124 145 146 109 83 79 86 81 70 77 85 64 71 63 67 78
82 97 116 138 183 236 244 255 271 274 261 254 229 207 196 200 209 245 271 265 263 281 264 196 157 154 141 121 152 134 132 93 74 84 81 70 67 72 73 56 57 62 81
84 68 63 54 85 163 212 221 232 279 273 261 221 226 189 178 264 271 305 320 298 294 291 254 180 152 140 147 157 141 125 101 112 79 76 76 90 71 51 63 75 69 61
96 83 86 69 51 96 124 148 197 243 240 235 247 232 245 254 291 312 320 359 390 345 317 307 255 204 165 152 161 134 128 135 126 89 92 103 88 78 103 110 136 150 160
105 86 67 81 94 90 86 121 175 235 252 264 244 251 264 308 366 371 334 385 382 426 411 337 283 253 204 185 150 109 132 131 122 144 119 108 101 116 125 138 149 174 187
89 72 78 86 80 85 94 103 96 160 268 308 306 268 297 296 349 403 409 398 418 421 431 415 355 306 263 203 135 136 138 124 146 137 150 131 115 120 149 160 160 156 177
146 139 111 100 104 104 103 105 122 131 148 279 343 343 288 327 316 397 441 461 488 472 465 528 460 390 328 248 154 116 134 137 144 134 141 132 129 138 148 148 144 152 142
103 112 123 102 122 147 157 140 134 145 190 165 307 335 408 490 492 365 426 513 561 519 490 515 536 482 407 328 221 131 122 143 139 129 135 133 136 154 156 141 139 125 139
-25 26 70 99 121 116 146 158 120 115 99 47 91 427 440 572 556 595 503 524 559 630 553 583 533 524 437 399 262 189 135 156 156 138 125 149 151 189 183 155 139 158 176
15 4 79 83 93 189 219 211 194 167 117 38 47 120 144 448 497 473 725 742 531 555 737 557 637 480 434 403 296 256 174 214 146 174 141 127 145 165 180 180 173 172 175
70 83 115 149 142 169 270 268 242 226 159 89 -89 -93 -31 115 164 393 505 500 503 507 938 1022 428 561 476 431 398 309 250 297 203 181 168 156 141 168 178 171 160 160 197
51 52 93 102 134 154 101 120 134 121 106 133 64 -6 -100 -12 202 180 196 344 324 606 494 492 435 520 508 515 413 334 327 330 223 172 199 208 155 156 184 170 170 170 173
26 57 123 105 113 129 110 55 55 -4 32 154 73 60 39 -129 -237 155 252 153 546 684 533 402 452 558 411 503 422 396 347 375 278 195 217 218 198 194 193 180 170 165 138
85 88 54 40 49 75 86 80 52 1 -45 -37 113 99 43 -61 -46 -186 -19 180 270 391 569 452 530 559 528 606 515 377 358 350 322 248 222 220 219 231 294 88 139 135 132
64 34 49 53 27 21 26 41 53 37 64 4 -50 -74 3 -51 -9 38 -57 26 104 260 441 484 563 611 608 593 507 492 348 377 371 323 310 375 309 285 353 370 204 141 116
41 62 67 54 56 47 47 66 80 74 34 80 56 98 81 34 -47 -5 -14 89 30 88 288 444 536 665 722 557 501 456 511 336 364 376 424 468 353 359 433 487 427 160 181
19 7 17 23 28 31 47 79 62 89 57 28 30 20 45 98 3 -19 90 -4 25 7 187 538 500 667 691 725 597 532 456 386 462 471 521 521 469 504 508 587 473 349 197
16 2 6 1 28 54 69 75 78 71 48 -0 -16 11 11 6 32 -16 115 96 60 38 153 182 512 588 592 675 463 442 517 465 545 526 551 522 543 493 495 547 543 415 221
16 -11 -8 13 42 68 67 66 54 36 34 21 6 24 37 44 13 29 24 147 176 139 86 150 226 288 581 491 541 487 599 558 589 523 532 589 528 490 522 518 540 425 273
-11 -10 38 54 65 66 74 62 45 22 5 32 15 21 54 59 41 73 31 95 121 131 147 150 170 191 326 442 415 580 602 601 675 578 604 623 530 468 560 552 573 472 342
32 49 50 44 42 47 58 49 31 -4 -14 -32 -35 11 18 47 56 64 40 24 27 82 207 168 221 173 232 325 433 552 652 636 780 675 698 667 612 569 567 564 569 522 383
45 45 41 28 27 30 27 29 31 -5 -9 -5 -6 -3 2 40 48 76 95 25 78 31 146 168 235 281 217 275 370 494 668 780 930 578 833 689 618 606 547 555 537 564 411
35 28 27 23 26 27 36 30 23 35 22 24 21 3 17 57 56 38 57 58 9 47 43 85 145 147 173 232 355 482 588 766 812 839 806 796 650 681 594 589 579 584 556
41 40 39 26 29 33 25 27 27 31 27 27 28 31 20 10 49 52 41 48 25 37 16 41 143 165 178 299 320 415 566 707 784 1099 828 926 792 754 702 588 575 641 601
48 50 37 28 30 32 26 27 22 19 25 35 36 52 37 21 14 35 34 36 39 66 81 62 39 97 147 260 317 447 586 702 790 1014 898 1129 1034 898 745 603 538 538 545
46 42 43 37 27 33 33 30 26 8 8 18 31 50 52 52 36 43 24 15 27 63 66 95 78 42 97 213 385 406 609 607 738 1011 1085 1168 1119 1021 864 717 577 586 601

GFSMA_con_3kmhel_237.txt.gz
Helicity
82 90 104 111 112 134 145 140 138 150 160 169 173 173 180 165 171 209 218 198 215 199 203 196 144 147 123 122 118 141 187 130 105 94 82 79 77 89 84 67 63 37 45
153 129 130 127 107 94 115 135 167 171 166 180 198 206 169 160 139 146 218 242 226 235 219 228 168 145 132 110 117 147 179 143 116 106 104 100 90 85 72 59 60 56 50
111 98 82 51 68 82 90 94 121 136 169 171 185 202 200 188 185 156 186 243 240 236 258 258 227 159 154 130 127 139 184 142 129 104 101 108 108 91 60 47 44 55 56
187 150 164 147 135 104 93 96 91 108 156 158 160 185 188 172 177 198 240 247 287 283 278 293 299 225 189 169 129 129 168 134 116 128 124 85 80 101 90 47 35 64 49
110 92 97 108 119 137 162 184 220 221 162 153 180 169 184 218 210 204 195 250 303 336 332 310 355 292 249 195 149 109 134 131 113 111 110 115 93 94 98 127 123 100 143
101 101 107 135 124 113 136 174 180 207 229 299 214 203 211 206 214 260 256 271 271 345 364 357 394 360 294 232 196 117 89 98 119 99 114 152 137 104 119 173 154 161 159
116 146 149 135 123 128 158 162 165 154 147 177 194 242 199 218 203 226 297 336 335 330 351 380 452 440 399 293 227 162 85 90 116 96 134 158 164 143 158 151 172 179 163
88 96 110 105 122 110 129 144 176 158 78 86 103 132 163 113 219 159 292 312 328 377 358 382 455 472 486 448 325 211 109 93 96 139 156 185 170 176 174 173 181 191 159
-27 10 69 105 105 109 93 104 122 164 160 136 140 124 113 269 207 189 260 328 284 379 424 461 496 496 564 517 438 281 169 145 131 138 164 178 196 217 205 174 161 169 162
-3 20 62 109 139 137 133 124 121 105 132 157 192 101 135 77 -47 44 -15 96 245 309 396 534 523 543 632 572 497 372 221 206 189 162 179 171 172 194 206 168 160 164 184
51 92 130 163 180 160 130 135 156 138 138 137 132 132 102 36 -30 -73 -161 -22 111 434 299 494 559 672 755 628 564 507 325 229 242 212 212 194 168 179 197 193 171 205 208
110 169 182 179 153 131 93 86 86 93 92 82 68 40 69 138 22 -83 -83 -113 60 270 309 320 521 669 832 685 653 672 375 277 246 227 231 224 184 211 199 187 224 242 254
123 174 156 137 103 60 57 53 71 84 84 85 71 42 37 27 83 24 -50 -8 -172 -170 88 197 406 843 650 716 729 742 307 348 294 259 237 244 230 221 253 240 218 207 223
41 78 58 74 91 95 91 77 63 54 51 65 69 62 74 32 59 52 55 -43 -66 -113 -292 286 267 619 637 759 761 466 504 415 333 339 309 280 286 259 263 259 258 207 225
35 34 50 47 45 35 39 44 50 58 67 64 89 86 89 54 48 55 15 63 138 93 -206 -121 -11 416 519 704 742 410 453 424 389 374 386 334 276 279 264 252 286 212 225
62 44 14 -1 -15 -15 3 23 44 58 95 111 123 134 98 50 43 85 63 52 5 84 91 122 -34 212 463 555 405 482 494 492 442 417 383 412 303 292 288 273 296 262 247
68 39 21 5 -1 8 27 54 71 87 99 108 117 120 68 -4 15 -15 0 5 -17 -23 27 44 39 -47 70 427 518 454 534 625 570 473 427 418 367 329 313 302 304 307 245
54 37 31 22 -5 30 49 71 67 80 89 98 97 94 67 26 40 18 -12 25 25 12 61 -28 113 18 -16 251 465 469 549 473 565 501 467 364 437 401 370 366 335 318 314
67 40 46 35 45 51 53 61 69 73 83 87 74 51 58 41 19 49 25 20 6 12 83 133 46 112 70 114 391 493 553 600 620 500 414 473 459 449 430 350 358 370 428
72 78 65 51 49 58 64 60 40 41 45 55 57 53 28 42 20 -3 3 17 17 27 61 134 121 66 90 54 267 497 535 685 706 573 451 464 468 465 415 337 393 420 444
93 74 62 56 61 61 53 41 26 29 32 36 53 54 54 30 -8 31 14 -5 -33 11 23 127 175 104 101 128 134 360 561 747 652 832 539 498 594 567 540 427 434 416 450
102 99 77 69 68 51 40 30 34 30 33 36 41 52 63 66 67 21 34 40 -1 -10 47 41 123 94 135 115 163 306 534 687 829 517 709 620 626 589 525 470 375 383 454
100 100 86 65 62 42 36 37 41 34 31 33 34 34 31 55 52 37 42 63 39 -6 -61 -16 83 61 86 100 143 251 307 554 802 734 684 823 684 690 633 553 407 428 462
102 105 92 77 56 43 43 38 35 29 31 36 36 29 17 20 14 6 17 21 46 57 -63 -22 17 13 87 104 140 214 333 526 596 690 818 804 834 788 682 627 448 481 516
103 98 95 86 70 54 37 37 41 29 27 31 31 28 21 7 19 12 -37 -19 32 66 67 35 8 26 20 84 152 168 320 369 697 742 795 1018 1163 1164 989 667 526 535 574
70 82 84 81 70 59 49 36 34 29 30 31 27 28 17 12 15 8 6 -28 -19 25 37 73 37 41 45 10 141 279 295 401 556 622 801 901 1155 1204 995 911 569 619 600

GFSMA_con_3kmhel_240.txt.gz
Helicity
156 126 131 139 142 140 132 148 146 123 103 106 116 134 154 166 154 199 198 168 177 161 144 160 167 108 116 113 116 132 151 144 145 129 115 94 107 117 109 92 79 79 61
211 186 171 157 130 123 133 135 116 133 139 161 162 151 148 190 143 164 195 176 158 172 158 163 186 171 137 144 142 124 125 162 142 117 119 96 107 120 115 89 63 50 48
241 173 194 193 189 198 175 157 171 172 134 149 149 165 160 170 198 188 219 215 181 139 150 142 177 225 183 133 142 133 134 162 147 120 138 116 109 102 78 73 72 48 41
168 157 164 145 133 121 125 151 174 198 209 253 163 149 171 172 148 184 217 221 220 208 191 164 179 254 226 201 161 130 138 157 161 116 118 118 105 73 88 65 54 57 56
105 151 183 181 173 161 167 161 162 141 145 176 194 247 256 181 152 158 157 196 210 242 217 216 200 258 287 249 221 166 112 141 168 126 104 107 129 119 85 77 61 52 55
144 162 165 178 173 179 189 201 197 188 167 155 149 151 159 161 159 174 152 122 155 187 222 191 257 288 318 317 263 232 163 116 123 122 99 109 125 120 105 70 82 92 62
110 146 168 176 180 188 197 189 132 167 154 170 133 116 96 156 151 118 50 196 107 143 191 215 226 268 337 361 344 267 210 123 124 107 103 89 122 130 132 104 110 125 134
114 133 152 168 184 174 193 198 200 159 118 147 130 90 10 42 177 248 213 118 24 188 135 209 212 244 277 388 373 336 265 174 155 138 140 129 121 137 172 180 192 203 190
40 71 98 143 177 169 158 156 144 150 120 118 146 119 70 -6 129 118 184 180 198 152 123 179 221 230 307 355 366 409 363 281 203 166 180 179 145 132 181 216 219 210 193
-58 1 44 75 104 145 141 131 134 137 129 118 128 123 162 203 135 22 78 149 118 76 29 95 326 172 292 426 337 383 447 437 291 229 181 207 193 171 155 226 235 214 194
-15 1 39 96 133 156 145 105 99 97 84 96 90 90 83 74 69 93 41 42 25 -46 -108 -19 -64 232 328 293 482 447 454 533 375 282 210 241 231 226 195 193 236 225 224
21 39 90 115 120 111 113 95 57 52 49 48 59 70 76 70 67 49 56 36 72 111 -173 -243 -311 -122 115 228 335 466 592 566 473 375 297 278 270 251 228 203 209 225 245
29 70 96 101 74 55 50 33 49 70 77 87 78 79 85 91 99 106 101 74 27 49 -19 -126 -84 -307 -207 28 214 709 661 552 581 421 391 340 265 233 221 218 219 231 265
34 28 60 78 65 82 93 88 55 42 20 26 23 46 70 89 110 127 113 106 113 40 -66 64 -103 -200 -93 -294 -2 174 654 581 593 573 467 365 351 264 230 237 233 245 274
59 46 41 27 47 33 0 -14 -20 11 30 44 61 70 75 100 126 148 138 123 111 148 -29 -110 -113 -171 -36 -95 -121 -49 534 560 666 717 553 403 397 311 255 270 244 276 299
85 62 32 32 22 0 -12 32 43 46 52 56 60 75 98 101 118 128 140 115 113 90 94 25 17 -25 10 66 91 4 95 527 735 671 624 450 437 327 287 324 348 325 316
113 95 89 60 41 26 35 58 72 78 77 74 86 92 94 109 115 112 124 130 111 92 30 -18 10 -12 -74 35 83 -54 -33 565 661 629 739 564 452 436 370 387 389 334 323
110 115 110 96 85 68 74 73 75 78 69 71 77 76 82 86 86 92 117 97 72 68 50 -8 -67 -48 -58 -11 93 107 -9 275 472 469 693 549 518 459 425 470 414 367 332
103 115 125 103 115 80 93 86 81 82 64 67 71 58 54 59 66 78 80 79 55 57 53 17 -86 -18 12 82 6 54 47 146 558 724 635 571 486 492 497 461 437 408 363
126 130 139 110 93 98 91 78 99 73 53 57 64 55 51 55 58 82 71 59 49 29 41 20 -77 11 15 67 55 34 37 207 375 617 533 712 604 498 502 452 425 410 376
126 142 139 128 115 105 95 102 88 68 58 56 55 53 55 49 43 83 96 64 4 52 44 -54 29 47 36 101 47 19 41 108 407 361 525 730 676 639 585 506 419 384 393
123 120 125 116 99 105 81 79 69 68 53 52 56 50 47 38 50 47 60 67 55 16 -2 -71 41 62 87 170 133 13 80 183 328 413 449 917 684 665 584 493 415 446 416
111 114 111 103 90 89 64 68 67 68 56 55 53 52 54 43 43 34 40 48 65 57 56 -25 -65 30 65 36 93 125 41 193 385 539 594 687 737 618 584 517 494 494 439
139 117 127 105 87 85 71 79 68 68 56 45 52 52 49 51 18 38 33 42 47 80 74 64 -41 -51 2 56 65 95 74 138 379 444 594 807 689 713 644 653 570 490 442
192 137 151 117 99 92 75 70 72 66 55 50 53 51 51 40 42 37 26 25 23 41 59 39 29 5 -28 -62 -20 41 187 239 352 535 689 1012 923 994 834 690 604 476 442
217 178 144 122 86 86 75 61 68 70 62 58 56 50 37 41 40 45 28 22 15 19 31 43 45 36 27 -29 -35 22 117 283 249 381 534 744 1095 1182 994 812 598 622 568

GFSMA_con_3kmhel_246.txt.gz
Helicity
200 197 184 165 161 153 132 116 103 117 112 100 90 83 80 101 110 152 180 185 129 113 62 51 63 93 102 101 98 75 71 74 68 55 78 62 70 52 58 43 37 41 49
226 211 185 165 125 106 96 90 113 111 109 133 146 113 87 102 98 110 133 140 121 102 84 56 39 40 66 86 92 84 65 82 89 83 69 78 59 62 84 96 74 50 36
188 172 144 103 81 79 83 105 116 119 116 126 124 148 171 155 118 124 118 107 82 80 90 85 48 30 36 50 53 111 108 88 99 107 94 94 83 70 95 99 96 93 53
117 77 57 52 65 70 93 111 120 129 132 136 130 131 145 164 153 146 126 143 110 112 92 84 89 70 51 44 46 70 122 122 110 132 142 127 118 105 117 127 119 117 71
61 45 39 50 64 73 84 102 113 122 142 145 148 145 150 140 151 147 131 109 113 132 130 114 83 97 96 77 63 77 93 128 141 138 146 156 145 135 158 155 132 145 84
-2 -3 -2 11 18 35 65 112 130 165 179 175 169 162 144 145 148 149 144 151 148 118 97 85 80 102 116 100 86 84 87 97 146 158 158 159 162 166 176 171 168 163 126
15 -5 -12 -5 20 48 95 114 150 162 178 176 173 140 154 118 108 145 168 268 300 265 261 266 222 175 114 87 98 72 68 93 120 171 183 182 171 195 187 206 181 165 148
-31 -30 -17 13 51 60 90 138 167 198 165 178 179 172 113 134 104 183 243 204 219 246 230 251 270 209 201 193 252 239 116 83 99 132 199 217 210 201 228 217 222 180 162
-43 -39 -49 -26 28 47 80 106 134 129 143 142 138 165 157 139 320 128 139 165 174 165 199 166 184 187 197 184 158 138 111 220 258 117 150 213 239 230 217 228 244 214 171
-143 -109 -41 9 1 31 66 101 129 131 119 112 123 102 113 135 133 161 137 115 109 101 107 110 108 121 130 132 145 87 127 99 97 175 307 171 243 267 250 228 256 247 193
-8 10 13 17 19 39 60 80 95 111 110 108 112 126 118 111 88 94 98 114 104 82 87 78 74 65 64 89 109 106 36 58 52 63 211 240 162 292 287 269 255 248 217
41 31 31 31 35 48 62 74 82 80 82 83 75 74 78 105 111 121 105 77 89 75 64 55 47 40 46 66 77 81 35 3 75 56 81 130 231 214 335 305 279 256 241
42 38 59 50 53 69 77 85 86 84 80 81 80 84 82 83 85 100 105 87 89 68 64 52 38 36 21 6 33 73 53 23 -14 17 50 12 134 191 202 361 327 272 228
45 45 45 48 55 69 80 94 102 100 99 92 80 80 78 70 65 52 62 93 92 81 68 48 45 45 53 59 88 89 20 53 51 5 -3 -12 -56 -13 264 308 362 321 235
51 51 54 55 49 58 70 78 102 102 100 93 82 71 60 73 78 78 82 89 83 77 40 47 66 93 98 72 65 76 73 37 55 44 42 -17 -160 -135 82 141 420 382 283
43 47 52 51 50 55 61 64 80 88 92 102 101 81 88 86 92 90 113 128 123 113 101 70 67 75 85 93 85 105 82 66 90 98 71 55 7 -63 -100 116 243 487 421
36 42 49 54 69 74 73 86 92 91 97 101 99 93 96 109 112 117 115 109 114 124 126 54 88 88 107 71 85 86 117 142 142 81 24 23 70 -18 -88 -152 76 689 520
48 58 65 73 76 82 78 80 89 88 101 103 104 105 92 112 109 102 105 104 115 105 119 75 55 53 55 61 92 78 109 138 123 50 2 12 6 21 11 10 22 290 647
71 69 66 66 66 68 69 78 87 95 95 94 100 93 98 106 101 107 110 114 102 93 99 95 40 46 47 63 85 107 111 110 129 42 47 95 42 55 32 23 72 427 933
89 82 88 88 89 87 84 85 84 84 90 94 107 106 88 92 93 98 104 106 99 91 84 84 61 56 57 82 116 148 126 147 130 69 34 105 55 20 25 38 121 176 934
153 133 131 116 99 95 95 79 79 80 82 86 82 87 83 80 82 79 94 99 88 85 81 72 69 67 85 92 122 138 121 144 148 112 12 37 50 -17 147 147 181 221 697
184 195 191 170 136 135 129 152 151 99 82 99 91 77 83 70 58 54 65 65 73 70 65 71 84 99 95 97 120 116 92 67 17 58 46 -39 71 193 194 206 125 212 753
165 158 131 151 166 156 168 183 185 112 81 84 75 77 80 80 63 61 66 68 67 53 57 62 69 95 90 85 81 80 94 106 -14 3 31 -36 36 145 215 251 153 194 794
134 163 168 145 130 132 129 188 199 119 90 77 91 74 70 76 69 75 71 64 61 61 58 71 70 70 71 61 75 91 81 13 -12 16 2 -64 75 119 197 141 195 264 655
93 97 119 124 146 155 86 35 162 129 96 75 86 74 81 81 83 62 57 56 60 64 52 25 17 15 2 12 65 97 102 23 -96 4 -31 -65 121 247 152 211 261 373 696
61 65 61 81 87 115 89 119 129 201 104 116 100 80 85 71 77 64 54 51 58 71 59 62 53 37 14 17 38 91 82 -19 -107 -32 -41 -40 162 275 306 412 449 780 1089

GFSMA_con_3kmhel_249.txt.gz
Helicity
262 256 229 239 255 219 151 105 80 86 85 96 89 82 84 104 94 126 157 149 201 135 113 87 66 61 79 94 66 63 77 75 62 54 63 70 60 45 43 44 50 54 49
214 197 207 201 186 186 174 109 99 76 61 55 55 60 89 85 92 91 95 113 142 147 131 109 80 62 65 72 51 94 69 68 54 56 54 63 69 55 48 47 62 65 62
189 214 192 157 151 110 65 42 45 53 56 59 50 54 59 81 100 101 110 114 117 113 132 104 85 80 82 82 75 85 85 77 83 71 74 62 58 59 55 58 73 68 67
123 130 117 109 94 37 27 38 55 67 76 84 88 109 109 86 74 90 105 118 115 111 103 105 95 95 76 85 84 81 80 83 92 104 86 91 70 59 66 68 94 102 96
131 108 86 72 45 20 25 38 50 74 75 76 87 103 131 139 140 115 87 91 103 103 119 102 88 103 88 80 71 72 70 85 103 114 108 120 104 90 84 91 113 121 100
122 119 73 54 50 56 52 65 69 65 82 93 102 127 165 166 152 149 136 131 114 129 111 112 139 113 104 104 81 81 62 59 82 102 117 127 141 125 120 117 138 141 146
184 102 75 65 26 27 44 25 23 34 48 91 95 104 97 106 81 87 106 132 124 202 315 225 170 192 212 236 176 105 74 71 52 64 107 135 163 167 166 167 157 168 174
102 72 70 19 0 -11 16 20 23 20 53 87 132 123 61 97 61 35 94 189 216 181 136 111 85 144 121 130 152 153 219 191 205 221 86 106 159 189 192 197 203 200 199
-35 -32 -39 -68 -95 -111 -68 -53 25 82 106 145 156 151 164 160 313 234 122 107 145 188 160 193 215 136 124 77 72 84 95 147 167 137 218 348 120 188 205 213 223 237 235
-178 -142 -114 -74 -28 -18 -27 -25 8 31 57 98 117 89 96 115 167 194 191 173 115 95 97 110 114 104 104 110 94 75 55 50 101 123 133 114 216 392 167 235 236 256 256
89 85 65 50 42 38 21 4 15 25 38 49 78 111 133 108 86 111 131 125 128 99 119 98 93 96 90 85 85 86 33 0 17 68 42 78 85 50 264 465 180 259 275
64 53 35 39 42 48 57 71 78 62 63 82 84 87 91 98 114 133 140 100 99 77 84 65 61 65 69 84 89 89 48 27 5 11 29 59 53 50 -36 73 284 278 280
69 37 26 23 41 65 79 69 73 80 83 90 104 101 98 96 98 109 116 113 114 64 71 71 68 63 61 63 68 102 109 60 56 34 36 42 46 48 18 43 -19 130 277
80 43 31 22 40 52 61 62 68 73 78 92 89 94 98 99 101 97 97 105 102 88 63 71 52 68 68 60 122 114 71 52 43 50 50 51 19 30 48 29 10 -40 87
50 34 42 42 40 58 76 84 91 79 89 91 111 111 127 119 120 110 102 94 96 104 98 63 63 96 92 141 139 120 115 96 67 18 43 43 24 11 12 23 49 4 35
53 36 39 32 34 31 57 74 85 79 80 92 103 92 105 118 124 153 132 128 123 111 115 99 94 153 143 128 108 105 73 71 67 73 74 71 49 38 26 -21 -14 33 66
76 50 34 31 30 32 53 81 80 86 92 95 97 92 93 118 139 147 180 195 198 168 139 111 106 108 115 112 89 66 70 79 78 69 70 61 53 3 -15 -7 -16 30 52
115 101 77 64 62 59 58 52 50 74 103 111 118 121 116 129 136 124 138 136 154 146 157 120 119 103 86 99 72 62 51 65 66 66 89 129 91 38 18 4 -20 11 61
108 88 90 94 96 98 87 86 88 78 66 81 106 124 123 134 142 167 190 147 148 142 159 144 124 104 75 70 66 62 52 56 80 73 96 96 69 62 54 69 55 -1 65
213 189 172 142 129 120 119 148 138 129 117 111 109 133 134 146 164 148 162 124 125 127 129 129 105 90 82 71 61 63 48 50 72 98 125 107 96 98 2 56 93 84 97
171 181 188 178 170 164 177 148 105 142 150 123 109 96 102 109 103 122 175 155 126 128 130 126 104 84 72 61 75 73 63 49 43 81 120 97 112 143 124 96 39 94 122
156 148 127 131 182 205 158 104 120 106 136 168 138 120 116 134 149 118 99 87 104 126 124 119 98 80 60 64 67 67 47 38 12 45 80 78 136 123 101 124 94 73 123
124 129 135 147 143 120 116 122 146 133 81 109 121 122 147 151 163 107 88 68 67 71 98 106 92 78 61 62 71 54 59 72 86 118 106 85 149 79 121 164 79 102 35
77 78 79 66 76 93 75 83 73 74 114 123 139 149 131 169 166 124 119 119 105 82 85 108 95 77 73 57 57 58 65 79 94 135 141 101 65 49 199 101 11 5 -9
103 108 99 89 89 73 64 46 61 86 83 76 112 127 122 138 111 110 121 114 96 79 85 70 60 50 53 54 50 73 77 84 91 113 143 115 142 62 107 23 -25 94 272
102 103 86 75 62 71 51 58 58 66 90 93 67 157 135 179 130 115 116 101 86 73 78 82 84 73 60 47 37 54 74 90 93 72 133 106 49 21 -56 13 10 285 156

GFSMA_con_3kmhel_252.txt.gz
Helicity
241 244 205 219 190 206 235 206 176 175 135 103 80 66 69 72 83 87 41 109 144 131 126 121 109 113 112 98 96 74 115 61 47 74 69 48 49 58 59 49 47 51 50
199 135 108 171 194 164 131 134 141 112 95 78 59 50 53 56 59 71 66 63 72 70 95 114 92 80 99 94 115 110 95 57 68 90 74 64 51 44 48 43 44 45 52
177 197 169 144 130 172 210 163 127 115 90 62 62 76 80 67 79 68 80 89 95 80 111 105 128 104 89 86 97 114 106 89 66 74 71 78 65 61 42 43 38 53 60
149 187 176 143 135 156 148 140 128 96 69 64 64 74 85 98 115 111 90 95 117 126 99 92 104 98 91 82 65 73 115 111 107 82 98 100 90 79 54 50 42 38 46
153 126 117 98 88 97 108 101 72 58 52 65 74 79 78 82 114 142 160 151 128 121 151 118 100 103 102 77 56 56 66 86 111 99 89 90 111 103 88 71 59 48 45
54 20 41 82 95 83 91 126 65 59 61 82 105 94 67 75 81 93 95 100 150 161 117 135 147 166 132 110 125 94 59 62 66 95 100 107 117 131 131 116 93 72 64
-175 -131 -36 -31 -16 15 22 -8 8 26 23 9 35 50 5 -6 17 92 125 129 131 105 127 171 145 115 150 156 151 107 82 90 85 67 65 97 133 137 139 142 134 121 99
-8 4 36 61 41 30 39 57 34 -13 -41 -26 -42 3 -98 13 233 220 114 148 172 198 234 193 148 125 90 81 79 116 147 142 127 171 199 244 120 126 142 150 155 164 154
-20 25 19 -13 44 0 -81 -190 -216 -187 -126 -72 1 62 71 128 128 178 322 300 255 177 182 206 231 211 175 132 88 39 54 88 138 147 110 125 208 248 212 155 152 168 178
9 22 24 50 61 59 77 90 54 67 88 79 53 64 77 72 88 94 178 206 170 125 107 121 121 139 120 120 116 61 24 61 58 45 106 92 82 159 183 390 258 124 156
-13 44 50 48 39 38 51 51 58 68 63 49 57 77 94 93 95 112 103 157 182 174 176 168 158 108 79 85 104 93 39 73 85 66 58 42 18 57 27 44 207 351 413
42 75 78 96 77 44 35 50 45 38 49 68 71 81 92 104 113 133 127 104 95 74 64 28 48 49 54 71 77 83 42 18 28 42 84 108 146 100 93 7 -2 48 107
106 110 89 62 41 37 42 45 60 74 75 81 84 92 97 96 97 109 117 118 115 66 50 66 54 64 62 66 69 93 86 25 6 15 41 59 81 96 68 47 30 -5 36
101 111 76 52 47 32 43 58 76 90 92 92 88 80 91 107 116 128 128 122 106 100 79 79 61 80 111 87 76 131 120 130 96 64 56 59 68 71 77 67 62 101 95
128 112 90 62 47 40 60 91 91 94 97 94 94 98 103 95 92 89 116 140 142 96 80 63 63 71 124 145 133 113 96 79 76 66 39 34 40 43 52 56 61 79 91
119 104 95 81 69 64 62 75 111 110 91 109 116 98 99 106 107 120 147 128 149 163 97 78 65 68 41 98 138 139 93 81 50 53 56 50 40 41 49 45 26 17 52
136 134 112 110 110 98 96 99 100 120 114 97 86 88 91 87 99 107 130 135 125 125 126 97 90 60 46 74 67 65 64 60 59 63 63 66 66 61 27 16 32 31 13
257 250 228 186 161 135 112 86 81 82 113 134 143 132 115 118 108 113 122 133 148 155 144 106 87 68 76 76 54 35 34 61 76 77 80 79 64 55 41 41 53 39 4
169 140 134 135 125 128 124 121 138 128 99 101 112 152 170 139 124 121 124 136 152 151 137 127 114 108 86 74 60 57 55 72 87 84 73 85 85 81 73 49 55 46 36
144 149 153 145 138 122 120 116 114 71 40 100 148 165 132 180 169 182 149 157 163 156 146 133 123 113 103 70 64 57 54 65 78 94 82 63 46 48 52 57 55 47 60
117 120 119 121 127 141 129 139 118 66 36 -15 22 88 84 121 173 201 208 194 202 184 164 140 127 122 123 101 84 61 80 65 56 59 71 66 62 73 63 48 46 41 67
100 89 81 81 85 93 91 103 124 100 69 42 -62 -49 -11 65 129 186 169 158 175 162 156 157 133 122 105 110 86 85 93 80 29 -28 1 44 47 60 60 71 83 73 79
73 83 92 88 90 97 92 106 83 71 53 64 85 60 26 47 89 108 205 194 190 148 127 141 120 116 96 94 78 89 101 99 90 58 30 64 19 112 74 98 59 81 121
98 98 84 91 101 95 83 64 67 65 52 44 58 65 84 67 93 136 150 221 243 168 149 167 140 120 117 97 97 92 87 82 78 68 53 73 33 95 80 102 64 75 141
120 110 117 110 90 71 60 67 91 65 45 29 8 9 37 68 63 63 99 200 243 168 134 95 89 85 89 76 82 92 88 78 74 60 61 86 84 64 58 95 121 87 123
119 133 112 103 78 69 54 66 69 38 49 39 1 -15 1 40 49 71 153 267 218 167 138 132 113 97 83 76 61 91 91 83 74 23 -25 49 83 41 -35 67 101 187 247